Main page
METAR-TAF:

METAR-TAF

Airports :

Clinton Municipal Airport

Clinton, Iowa, United States

latitude: 41-50N, longitude: 090-20W, elevation: 708 ft

Current weather observation

The report was made 47 minutes ago, at 23:56 UTC
Wind 5 mph from the South/Southeast
Temperature 82°F
Humidity 62%
Pressure 30.10 in. Hg
Visibility: 10 miles
Clear sky

METAR: KCWI 122356Z AUTO 16004KT 10SM CLR 28/20 A3010 RMK AO2 SLPNO T02830200 10294 20278 53000

Time: 19:43 (00:43 UTC)


TAF: missing

Weather observations and forecasts of more than 4000 airports (METAR and TAF reports).

The available stations are represented by yellow and red dots on the map.

Hover mouse over dot to see the name of the station.

Then click to see weather observations and forecasts.

To change the map : click on the green buttons with a black cross to zoom in, on the green button with a dash to zoom out, or on the green arrows for adjacent maps.


METAR-TAF: